Home   Weather   Lanchow   Past weeks

Flag for China Past Weather in Lanchow, Gansu, China — Yesterday and Last 2 Weeks

Now
14 °F

Clear.


Feels Like: 8 °F
Forecast: 14 / 37 °F
Wind: 3 mph from Northwest

Location: Lanzhou / Zhongchuan

Current Time: Feb 24, 2017 at 9:31:34 am

Latest Report: Feb 24, 2017 at 8:00 am


Visibility: 4 mi

Pressure: 30.21 "Hg (24.76 "Hg at 1531m altitude)

Humidity: 92%

Dew Point: 12 °F

Location of LanchowLocation

Past Weather in Lanchow — Graph

°F

Lanchow Temperature Yesterday

Maximum temperature yesterday: 34 °F (at 3:00 pm)
Minimum temperature yesterday: 12 °F (at 7:00 am)
Average temperature yesterday: 24 °F

High & Low Weather Summary for the Past Weeks

 TemperatureHumidityPressure
High61 °F (Feb 15, 4:00 pm)93% (Feb 20, 11:00 pm)30.36 "Hg (Feb 20, 11:00 pm)
Low3 °F (Feb 11, 7:00 am)5% (Feb 15, 4:00 pm)29.71 "Hg (Feb 19, 6:00 am)
Average28 °F51%30.15 "Hg
* Reported Feb 9 8:00 am — Feb 24 8:00 am, Lanchow, Weather by CustomWeather, © 2017

Note: Actual official high and low records may vary slightly from our data, if they occured in-between our weather recording intervals... More about our weather records

Advertising

Lanchow Weather History for the Previous 24 Hours

Scroll right to see more
 ConditionsComfort  
Time TempWeatherWind HumidityBarometerVisibility
8:00 am
Fri, Feb 24
14 °FClear.3 mph92%30.21 "Hg4 mi
7:00 am14 °FClear.3 mph85%30.21 "Hg4 mi
6:00 am16 °FClear.3 mph86%30.21 "Hg4 mi
5:00 am16 °FClear.3 mph93%30.18 "Hg4 mi
4:00 am16 °FClear.3 mph93%30.21 "Hg4 mi
3:00 am18 °FClear.3 mph93%30.24 "Hg4 mi
2:00 am19 °FIce fog.1 mph93%30.24 "Hg3 mi
1:00 am21 °FIce fog.3 mph93%30.24 "Hg3 mi
12:00 am21 °FClear.3 mph93%30.24 "Hg4 mi
11:00 pm
Thu, Feb 23
23 °FClear.3 mph86%30.27 "Hg4 mi
10:00 pm27 °FClear.3 mph74%30.24 "Hg10 mi
9:00 pm27 °FClear.1 mph74%30.24 "Hg10 mi
8:00 pm28 °FClear.1 mph74%30.24 "Hg10 mi
7:00 pm30 °FPassing clouds.3 mph64%30.21 "HgN/A
6:00 pm32 °FSunny.1 mph51%30.18 "Hg10 mi
5:00 pm34 °FPassing clouds.6 mph56%30.18 "HgN/A
4:00 pm34 °FPassing clouds.3 mph51%30.18 "HgN/A
3:00 pm34 °FScattered clouds.1 mph51%30.18 "HgN/A
2:00 pm32 °FScattered clouds.1 mph60%30.21 "Hg5 mi
1:00 pm32 °FScattered clouds.3 mph64%30.24 "Hg5 mi
12:00 pm28 °FScattered clouds.3 mph69%30.27 "Hg5 mi
11:00 am27 °FPassing clouds.3 mph74%30.27 "Hg4 mi
10:00 am23 °FClear.3 mph86%30.27 "Hg4 mi
9:00 am18 °FScattered clouds.3 mph86%30.27 "HgN/A
Weather by CustomWeather, © 2017

See weather overviewHow to use our weather pages